Home   Weather   Lienz   Past weeks

Flag for Austria Past Weather in Lienz, Tyrol, Austria — Yesterday and Last 2 Weeks

Now
67 °F

Mild.


Feels Like: 67 °F
Forecast: 52 / 64 °F
Wind: 3 mph from South

Location: Lienz

Current Time: Oct 1, 2016 at 7:25:44 PM

Latest Report: Oct 1, 2016 at 6:00 PM


Visibility: N/A

Pressure: 29.88 "Hg (27.60 "Hg at 677m altitude)

Humidity: 53%

Dew Point: 49 °F

Location of LienzLocation

Past Weather in Lienz — Graph

°F

Lienz Temperature Yesterday

Maximum temperature yesterday: 71 °F (at 3:00 PM)
Minimum temperature yesterday: 45 °F (at 6:00 AM)
Average temperature yesterday: 58 °F

High & Low Weather Summary for the Past Weeks

 TemperatureHumidityPressure
High74 °F (Sep 25, 4:00 PM)97% (Sep 19, 6:00 AM)30.52 "Hg (Sep 19, 6:00 AM)
Low42 °F (Sep 26, 8:00 AM)39% (Sep 19, 5:00 PM)29.79 "Hg (Sep 18, 3:00 PM)
Average58 °F73%30.10 "Hg
* Reported Sep 16 6:00 PM — Oct 1 6:00 PM, Lienz, Weather by CustomWeather, © 2016

Note: Actual official high and low records may vary slightly from our data, if they occured in-between our weather recording intervals... More about our weather records

Advertising

Lienz Weather History for the Previous 24 Hours

Scroll right to see more
 ConditionsComfort  
Time TempWeatherWind HumidityBarometerVisibility
6:00 PM
Sat, Oct 1
67 °FMild.3 mph53%29.88 "HgN/A
5:00 PM68 °FMild.3 mph52%29.87 "HgN/A
3:00 PM70 °FMild.1 mph44%29.88 "HgN/A
2:00 PM70 °FPartly sunny.2 mph45%29.90 "Hg19 mi
1:00 PM68 °FMild.1 mph53%29.93 "HgN/A
12:00 PM65 °FMild.1 mph62%29.96 "HgN/A
11:00 AMN/APassing clouds.99 mphN/AN/A1 mi
10:00 AM59 °FCool.1 mph71%30.01 "HgN/A
9:00 AM53 °FCool.No wind85%30.04 "HgN/A
8:00 AM49 °FCool.No wind93%30.07 "HgN/A
7:00 AM48 °FOvercast.1 mph93%30.07 "Hg19 mi
6:00 AM49 °FCool.No wind92%30.06 "HgN/A
5:00 AM49 °FCool.No wind91%30.07 "HgN/A
4:00 AM49 °FCool.1 mph92%30.08 "HgN/A
3:00 AM48 °FCool.1 mph91%30.11 "HgN/A
2:00 AM50 °FCool.1 mph89%30.11 "HgN/A
1:00 AM52 °FCool.1 mph87%30.11 "HgN/A
12:00 AM55 °FCool.No wind83%30.10 "HgN/A
11:00 PM
Fri, Sep 30
56 °FCool.No wind81%30.10 "HgN/A
10:00 PM57 °FCool.1 mph77%30.09 "HgN/A
9:00 PM59 °FCool.2 mph72%30.06 "HgN/A
8:00 PM63 °FMild.2 mph59%30.03 "HgN/A
7:00 PM64 °FMild.1 mph58%30.01 "HgN/A
Weather by CustomWeather, © 2016

See weather overviewHow to use our weather pages